#timestamp,LO_Frequency,Hit,StdDev 
1629216015.6,286047001.2,P
1629216035.5,286047000.3,N
1629216055.3,286047002.8,P
1629216075.1,286047001.0,N
1629216095.9,286047000.5,N
1629216115.7,286046999.9,N
1629216135.5,286047001.0,N
1629216155.4,286047001.1,N
1629216175.2,286047000.4,N
1629216195.0,286046999.9,N
1629216196.0,286046999.9,N
1629216215.8,286047002.5,Y
1629216235.6,286047002.8,P
1629216255.5,286047004.4,P
1629216275.3,286047004.1,N
1629216295.1,286047005.8,Y
1629216315.9,286047001.8,P
1629216335.7,286047001.8,N
1629216355.6,286046999.8,N
1629216375.4,286047001.5,N
1629216395.2,286047004.3,Y
1629216415.1,286046999.9,P
1629216416.0,286046999.9,N
1629216435.8,286047000.9,N
1629216455.7,286047000.9,N
1629216475.5,286047000.6,N
1629216495.3,286047000.2,N
1629216515.2,286047001.2,N
1629216535.9,286046998.1,Y
1629216555.7,286046996.6,P
1629216575.6,286046999.1,N
1629216595.4,286046999.1,N
1629216615.3,286046998.3,N
1629216635.1,286046998.3,N
1629216636.0,286046998.3,N
1629216655.8,286046998.6,N
1629216675.7,286047000.8,N
1629216695.5,286046998.3,N
1629216715.3,286046998.8,N
1629216735.2,286046999.1,N
1629216755.0,286046998.9,N
1629216755.9,286046998.9,N
1629216775.8,286046998.4,N
1629216795.6,286047001.0,N
1629216815.4,286047000.4,N
1629216835.3,286047000.4,N
1629216855.1,286047000.8,N
1629216875.8,286046998.8,N
1629216895.7,286047000.7,N
1629216915.5,286046999.5,N
1629216935.4,286046999.2,N
1629216955.2,286046999.6,N
1629216975.0,286046996.9,N
1629216975.9,286046996.9,N
1629216995.8,286046997.0,N
1629217015.6,286046997.8,N
1629217035.4,286046997.0,N
1629217055.3,286046996.9,N
1629217075.1,286046997.4,N
1629217095.8,286046999.3,N
1629217115.7,286046998.1,N
1629217135.5,286046998.2,N
1629217155.4,286046998.9,N
1629217175.2,286046999.3,N
1629217195.0,286047000.9,N
1629217195.9,286047000.9,N
1629217215.8,286046998.2,N
1629217235.6,286047000.8,N
1629217255.4,286046998.2,N
1629217275.3,286047000.5,N
1629217295.1,286047000.5,N
1629217315.9,286046999.9,N
1629217335.7,286047000.4,N
1629217355.5,286047000.6,N
1629217375.4,286047000.0,N
1629217395.2,286047000.7,N
1629217415.0,286047000.5,N
1629217415.9,286047000.5,N
1629217435.8,286047000.6,N
1629217455.6,286046999.9,N
1629217475.5,286047000.7,N
1629217495.3,286047001.0,N
1629217515.1,286047000.3,N
1629217535.9,286046999.9,N
1629217555.7,286046999.9,N
1629217575.5,286047000.1,N
1629217595.4,286046999.9,N
1629217615.2,286047000.6,N
1629217635.1,286047001.2,N
1629217636.0,286047001.2,N
1629217655.8,286047001.0,N
1629217675.6,286047000.8,N
1629217695.5,286047000.7,N
1629217715.3,286046999.9,N
1629217735.1,286047000.1,N
1629217755.9,286046999.8,N
1629217775.7,286047000.6,N
1629217795.6,286046999.9,N
1629217815.4,286047002.7,Y
1629217835.2,286047002.2,P
1629217855.1,286047002.4,N
1629217856.0,286047002.4,N
1629217875.8,286047004.4,Y
1629217895.7,286047000.1,P
1629217915.5,286047000.2,N
1629217935.3,286047001.0,N
1629217955.2,286046999.3,N
1629217975.0,286046999.4,N
1629217975.9,286046999.4,N
1629217995.7,286046999.3,N
1629218015.6,286046997.3,Y
1629218035.4,286046997.2,P
1629218055.3,286046997.4,N
1629218075.1,286046997.9,N
1629218076.0,286046997.9,N
1629218095.8,286046995.4,Y
1629218115.7,286046996.5,P
1629218135.5,286046996.8,P
1629218155.4,286046997.3,P
1629218175.2,286046997.0,Y
1629218195.0,286046998.6,P
1629218195.9,286046998.6,N
1629218215.8,286046998.9,N
1629218235.6,286046997.3,Y
1629218255.5,286046998.3,P
1629218275.3,286046998.2,P
1629218295.1,286046998.7,P
1629218315.9,286046998.7,Y
1629218335.7,286047000.9,P
1629218355.6,286047000.6,N
1629218375.4,286046998.4,N
1629218395.2,286046998.8,N
1629218415.1,286046999.1,N
1629218416.0,286046999.1,N
1629218435.8,286046998.8,N
1629218455.6,286046999.5,N
1629218475.5,286046998.8,N
1629218495.3,286046998.9,N
1629218515.2,286046999.6,N
1629218535.9,286046999.2,N
1629218555.7,286046999.2,N
1629218575.6,286046996.8,Y
1629218595.4,286046999.4,P
1629218615.2,286046999.2,P
1629218635.1,286046999.6,P
1629218636.0,286046999.6,N
1629218655.8,286046999.1,Y
1629218675.7,286046999.3,P
1629218695.5,286046999.1,P
1629218715.4,286046996.6,P
1629218735.2,286046997.7,N
1629218755.0,286046995.0,Y
1629218755.9,286046995.0,P
1629218775.8,286046999.3,N
1629218795.6,286046999.6,N
1629218815.4,286046999.1,N
1629218835.3,286046998.4,N
1629218855.1,286046998.7,N
1629218875.9,286046998.2,N
1629218895.7,286046998.7,N
1629218915.5,286046998.2,N
1629218935.4,286047001.0,N
1629218955.2,286047001.0,N
1629218975.1,286047001.0,N
1629218976.0,286047001.0,N
1629218995.8,286046999.9,N
1629219015.6,286047000.0,N
1629219035.5,286047000.1,N
1629219055.3,286047000.5,N
1629219075.1,286047000.3,N
1629219095.9,286047002.3,N
1629219115.7,286047002.8,N
1629219135.6,286047002.3,N
1629219155.4,286047004.3,N
1629219175.2,286047003.6,N
1629219195.1,286047003.8,N
1629219196.0,286047003.8,N
1629219215.8,286047003.7,N
1629219235.7,286047003.0,N
1629219255.5,286047003.9,N
1629219275.3,286047003.7,N
1629219295.2,286047004.1,N
1629219315.9,286047003.5,N
1629219335.7,286047003.4,N
1629219355.6,286047003.8,N
1629219375.4,286047004.2,N
1629219395.2,286047003.5,N
1629219415.1,286047002.9,N
1629219416.0,286047002.9,N
1629219435.8,286047003.1,N
1629219455.7,286047003.2,N
1629219475.5,286047004.3,Y
1629219495.3,286047000.2,P
1629219515.2,286047004.4,P
1629219535.0,286047004.4,N
1629219535.9,286047004.4,N
1629219555.8,286047004.2,N
1629219575.6,286047002.9,N
1629219595.4,286047005.6,Y
